[[{"header":{"parameterUnit":"m.s-1","parameterCategory":1,"la1":30.2992,"la2":30.254,"lo1":-89.0895,"lo2":-89.0443,"dy":0.0025,"dx":0.0025,"nx":19,"ny":19,"refTime":"2026-03-22T09:00:00:Z","depth":0,"parameterNumber":2,"parameterNumberName":"U-component_of_WINDS"},"data":[0,0,0,3.7953,3.7957,3.8145,3.8145,3.8389,3.8391,0,0,0,0,0,0,0,0,0,0,0,3.79,3.7901,3.7953,3.7958,3.8145,3.8145,3.8388,3.8391,0,0,0,0,0,0,0,0,0,0,0,3.7899,3.7901,3.7903,3.7958,3.8144,3.8145,3.8388,3.8245,0,0,0,0,0,0,0,0,0,0,3.8063,3.8015,3.7901,3.7903,3.7959,3.8144,3.8146,3.8238,3.8254,3.8305,0,3.8351,0,3.8375,3.8407,3.8408,0,0,0,3.7956,3.8002,3.8051,3.7904,3.7961,3.8144,3.806,3.8247,3.8265,3.8326,3.8354,3.8363,3.8379,3.8409,3.841,3.8706,3.8707,0,0,3.7946,3.7935,3.8038,3.8062,3.8033,3.8054,3.8066,3.8258,3.8288,3.8355,3.8369,3.8383,3.841,3.8412,3.8705,3.8706,0,0,0,3.7917,3.7928,3.7971,3.8052,3.8086,3.8059,3.8073,3.828,3.8295,3.8372,3.8385,3.8412,3.8415,3.8703,3.8705,3.8763,0,0,0,3.7911,3.7911,3.7967,3.7962,3.8082,3.8185,3.809,3.8281,3.8303,3.8384,3.8412,3.8417,3.8702,3.8704,3.8758,3.8792,0,0,0,3.7887,3.7908,3.7936,3.7961,3.8041,3.8182,3.8208,3.8286,3.8312,3.8408,3.8418,3.8701,3.8704,3.8754,3.8785,3.8864,0,0,0,3.7858,3.7987,3.7936,3.8086,3.8039,3.8217,3.8207,3.8341,3.843,3.8413,3.8702,3.8705,3.8752,3.8781,3.8859,3.8927,3.8955,0,0,3.8015,3.8006,3.8094,3.8054,3.8237,3.8189,3.8382,3.8475,3.8496,3.8635,3.8642,3.876,3.8785,3.8863,3.9119,3.9141,0,0,0,3.814,3.8203,3.8254,3.8337,3.8411,3.8476,3.8541,3.8575,3.8693,3.8565,3.8812,3.8827,3.8873,3.8906,3.8925,3.8964,3.872,3.872,3.872,3.8344,3.8361,3.8508,3.8547,3.8628,3.8693,3.876,3.8817,3.8813,3.8871,3.8912,3.9065,3.9103,3.9117,3.9157,3.8951,3.8951,3.8952,3.8952,3.8572,3.8662,3.8651,3.8789,3.8806,3.8923,3.8989,3.8982,3.9092,3.9036,3.9078,3.9013,3.914,3.9176,3.8956,3.8956,3.8955,3.8954,3.8954,3.8705,3.8751,3.879,3.891,3.9002,3.9038,3.9143,3.9157,3.917,3.9212,3.9254,3.9253,3.9251,3.9231,3.9232,3.9233,3.9233,3.9233,3.9234,3.8827,3.8868,3.8955,3.9042,3.9096,3.9169,3.9234,3.9288,3.935,3.9351,3.9352,3.9339,3.915,3.91,3.9242,3.924,3.9239,3.9239,3.9238,3.9046,3.8998,3.9132,3.9186,3.9287,3.9376,3.9391,3.9499,3.9545,3.9596,3.9576,3.9434,3.9426,3.9412,3.937,3.9573,3.9573,3.9573,3.9573,3.9156,3.9154,3.9291,3.9376,3.9461,3.9488,3.9636,3.9688,3.9734,3.9763,3.9736,3.9683,3.9668,3.9669,3.9649,3.961,3.987,3.987,3.987,3.9291,3.9297,3.942,3.9463,3.9543,3.9612,3.9751,3.9848,3.9891,3.9882,3.9785,3.9773,3.9688,3.966,3.9647,3.9616,3.9546,0,0]},{"header":{"parameterUnit":"m.s-1","parameterCategory":1,"la1":30.2992,"la2":30.254,"lo1":-89.0895,"lo2":-89.0443,"dy":0.0025,"dx":0.0025,"nx":19,"ny":19,"refTime":"2026-03-22T09:00:00:Z","depth":0,"parameterNumber":3,"parameterNumberName":"V-component_of_WINDS"},"data":[0,0,0,2.841,2.8413,2.8538,2.8539,2.8697,2.8699,0,0,0,0,0,0,0,0,0,0,0,2.8374,2.8375,2.841,2.8413,2.8538,2.8539,2.8697,2.8699,0,0,0,0,0,0,0,0,0,0,0,2.8373,2.8374,2.8376,2.8413,2.8538,2.8539,2.8697,2.8602,0,0,0,0,0,0,0,0,0,0,2.8481,2.8448,2.8374,2.8376,2.8414,2.8538,2.8539,2.8598,2.8608,2.864,0,2.8671,0,2.8687,2.8709,2.871,0,0,0,2.8412,2.844,2.8473,2.8376,2.8415,2.8538,2.8481,2.8604,2.8615,2.8654,2.8673,2.8679,2.869,2.871,2.8711,2.8902,2.8903,0,0,2.8405,2.8396,2.8465,2.8481,2.8463,2.8477,2.8485,2.8611,2.863,2.8673,2.8682,2.8692,2.8711,2.8713,2.8901,2.8902,0,0,0,2.8386,2.8392,2.8422,2.8474,2.8497,2.8481,2.849,2.8624,2.8635,2.8684,2.8694,2.8712,2.8714,2.89,2.8901,2.8939,0,0,0,2.8382,2.838,2.8419,2.8414,2.8495,2.8563,2.8501,2.8626,2.8641,2.8693,2.8712,2.8716,2.8899,2.8901,2.8936,2.8959,0,0,0,2.8365,2.8378,2.8397,2.8414,2.8467,2.8561,2.8579,2.863,2.8647,2.871,2.8716,2.8898,2.89,2.8933,2.8954,2.9006,0,0,0,2.8345,2.8429,2.8397,2.8495,2.8466,2.8583,2.8578,2.8665,2.8724,2.8713,2.8899,2.8901,2.8932,2.8951,2.9003,2.9048,2.9067,0,0,2.8446,2.8441,2.8499,2.8474,2.8595,2.8565,2.8691,2.8752,2.8766,2.8855,2.886,2.8937,2.8954,2.9005,2.9171,2.9186,0,0,0,2.8528,2.8569,2.8603,2.8659,2.8708,2.8751,2.8795,2.8817,2.8893,2.881,2.897,2.898,2.9011,2.9033,2.9045,2.9072,2.8911,2.8911,2.8911,2.8659,2.8671,2.8768,2.8795,2.8849,2.8892,2.8936,2.8973,2.8971,2.9008,2.9035,2.9134,2.916,2.9169,2.9196,2.906,2.906,2.906,2.906,2.8808,2.8868,2.8862,2.8953,2.8965,2.9041,2.9085,2.908,2.9152,2.9115,2.9143,2.9102,2.9184,2.9209,2.9063,2.9063,2.9062,2.9062,2.9062,2.8895,2.8926,2.8952,2.9033,2.9093,2.9117,2.9186,2.9195,2.9203,2.923,2.9259,2.9258,2.9259,2.9243,2.9244,2.9244,2.9244,2.9245,2.9245,2.8976,2.9004,2.9061,2.912,2.9155,2.9204,2.9246,2.9282,2.9322,2.9323,2.9323,2.9316,2.919,2.9158,2.925,2.9249,2.9248,2.9248,2.9248,2.9122,2.909,2.918,2.9216,2.9284,2.9342,2.9352,2.9422,2.9452,2.9485,2.9472,2.9378,2.9373,2.9363,2.9337,2.9469,2.9469,2.9469,2.9469,2.9196,2.9194,2.9287,2.9344,2.94,2.9417,2.9516,2.9549,2.9578,2.9596,2.9578,2.9544,2.9534,2.9535,2.9521,2.9497,2.9667,2.9668,2.9668,2.9287,2.929,2.9374,2.9403,2.9456,2.9501,2.9593,2.9657,2.9683,2.9676,2.9611,2.9603,2.9548,2.9529,2.9521,2.95,2.9456,0,0]}]]